CAPE
1899 2011 2057 1952 1764 1604 1475 1491 1486 1257 1262 1162 1252 1323 1202 1120 1222 1103 1451 1536 1637 1733 1761 1882 1975 1898 1942 2080 2104 2106 2125 2068 2078 2045 2017 1939 1908 1976 1883 1810 1806 1684 1643 1570 1470 1502 1693 1650 1778 1855 1769 1527 1450 1644 1528 1440 1428 1238 1322 1389 1440 1406 1427 1491 1427 1412 1470 1374 1289 1480 1169 1567 1357 1612 1588 1470 1434 1527 1381 1371 1294 1229 1405 1219 1403
2096 1952 2086 1911 1821 1584 1507 1478 1396 1219 1194 1150 1104 1427 1239 1114 1174 1187 1382 1496 1580 1646 1840 1911 1931 1946 2082 2053 2094 2086 2164 2090 2031 2034 2019 2051 1986 1966 1763 1805 1769 1681 1623 1563 1503 1632 1670 1582 1571 1586 1585 1206 1380 1323 1340 1417 1297 1343 1309 1318 1402 1362 1385 1336 1240 1334 1440 1430 1339 1467 1464 1600 1502 1537 1563 1407 1321 1458 1445 1350 1144 1191 1274 1116 1401
2038 2138 2075 1804 1636 1725 1806 1463 1344 1254 1111 1122 1244 1233 1202 1078 1060 1215 1247 1401 1537 1667 1798 1914 2008 2058 2080 2108 2137 2202 2148 2126 2119 2048 2020 1902 2009 2036 1900 1711 1796 1708 1664 1635 1654 1595 1487 1388 1593 1440 1489 1358 1270 1277 1468 1423 1358 1098 1062 1214 1296 1338 1336 1348 1364 1419 1426 1428 1439 1394 1490 1494 1368 1544 1545 1458 1348 1358 1287 1248 1098 1090 1267 1258 1258
2012 2118 1879 1603 1734 1770 1484 1617 1412 1204 1043 1079 1299 1171 1056 1016 1118 1218 1298 1424 1670 1768 1916 1955 2026 2075 2227 2212 2171 2164 2156 2109 2079 2070 1990 1924 1900 1995 1857 1684 1599 1558 1516 1467 1430 1376 1352 1266 1511 1345 1481 1584 1519 1439 1386 1384 889 701 772 1012 1102 1248 1333 1404 1421 1457 1384 1466 1390 1064 1222 1237 1201 1354 1337 1316 1262 1266 1266 1170 1197 1250 1152 1231 1174
2070 1843 1635 1427 1339 1627 1680 1635 1300 1197 1188 1016 980 1017 1056 1124 1201 1291 1355 1707 1899 1962 1825 2000 2110 2154 2121 2107 2161 2183 2173 2124 2071 2100 2015 1971 1804 1568 1354 1128 996 1073 1294 1346 1345 1367 1190 1091 1562 1433 1420 1476 1349 1072 1305 928 598 780 1060 1132 1206 1180 1172 1312 1371 1464 1483 1448 1273 1039 1150 961 1120 1215 1194 1133 1026 1015 1033 1009 1004 1106 1104 1143 1184
1999 1844 1522 1332 1320 1374 1660 1575 1260 1123 993 999 993 1070 1088 1069 1145 1281 1600 1923 1980 2002 2049 2111 2107 2113 2131 2199 2236 2168 2156 2082 1898 1748 1562 1410 1386 1096 946 777 755 857 1055 1061 1021 999 972 965 1077 1347 1325 1357 1466 1248 817 541 737 1109 1228 1230 1378 1386 1325 1423 1519 1497 1426 1318 1194 1174 1056 1001 898 850 974 1002 933 873 929 928 908 901 895 927 940
1994 1813 1548 1371 1365 1387 1704 1625 1432 1250 1146 1066 1022 1052 1091 1062 1104 1471 1787 1985 2047 2132 2139 2132 2141 2150 2201 2231 2209 2202 2041 1831 1550 1268 1062 928 952 984 833 669 575 443 482 725 644 571 621 902 1048 1074 1278 1277 1303 746 524 693 965 1206 1281 1377 1393 1398 1454 1367 1339 1307 1258 1063 1194 1093 1067 917 1006 898 1125 802 710 668 702 791 807 754 695 802 621
1928 1679 1497 1403 1579 1512 1713 1724 1460 1323 1202 992 925 1087 1150 1198 1277 1556 1970 2033 2143 2168 2192 2261 2151 2175 2230 2287 2227 2192 1977 1591 1368 1364 1263 1171 1150 1202 1248 992 845 642 434 319 311 482 626 742 912 1054 1064 1071 891 570 657 1022 1152 1365 1582 1561 1464 1347 1378 1264 1252 1196 990 862 1055 1063 1134 1092 1081 1022 865 742 619 493 598 528 586 660 632 629 468
1791 1575 1474 1440 1553 1483 1628 1656 1597 1421 1159 1155 1125 1073 1204 1258 1408 1832 2034 2147 2232 2127 2224 2232 2192 2168 2276 2248 2227 2220 2199 2134 2114 1966 1797 1679 1556 1418 1302 1355 1014 990 750 590 602 640 645 715 728 858 703 871 601 605 961 1156 1272 1700 1963 1760 1461 1379 1334 1267 1196 1085 786 963 910 993 978 902 860 758 626 579 617 808 738 482 594 316 245 238 264
1679 1530 1382 1499 1547 1620 1821 1643 1256 1128 1060 1031 1056 1054 1271 1268 1282 1840 2038 2108 2225 2258 2272 2185 2152 2176 2259 2234 2298 2211 2091 1950 1962 1597 1293 1119 1022 938 900 892 854 878 352 372 485 684 692 664 701 849 1034 581 510 777 1004 1180 1391 1583 1636 1646 1459 1390 1211 1145 1060 974 681 823 925 986 1067 847 706 748 940 961 922 678 802 710 832 811 872 646 515
1653 1493 1403 1515 1501 1714 1788 1643 1627 1263 1188 1224 1127 1174 1240 1280 1535 1746 1724 1957 2207 2275 2296 2183 2194 2225 2268 2220 2268 2156 2070 1826 1599 1539 1558 1698 1148 960 1056 1137 1166 1230 1062 929 907 774 667 732 865 798 678 478 728 879 1082 1299 1380 1492 1387 1346 1383 1278 1193 1091 873 612 685 799 999 1109 1062 1004 844 906 622 603 586 476 489 540 521 590 656 732 713
1627 1517 1573 1559 1594 1820 1758 1805 1452 1175 1017 1159 1146 1192 1242 1340 1426 1650 1948 1924 1855 2194 2280 2327 2246 2143 2259 2361 2341 2190 2170 1960 1737 1908 1757 1586 1492 1300 1266 1204 934 908 839 716 610 714 751 727 733 681 554 654 626 778 1037 1176 1311 1444 1356 1322 1260 1173 1127 1032 645 632 701 747 798 835 833 718 880 796 542 542 441 441 448 500 579 518 436 484 544
1714 1570 1607 1737 1766 1847 1872 1582 1282 1217 1197 1081 1026 961 1164 1244 1438 1550 1914 2041 2098 2033 2258 2302 2249 2201 2289 2274 2291 2032 1968 1748 1614 1485 1326 1259 1129 1052 914 905 861 651 640 712 727 791 727 756 804 635 626 696 662 807 1077 1279 1172 1269 1248 1179 1160 1145 998 852 537 592 635 707 825 830 821 934 878 941 952 871 765 688 666 548 426 393 453 385 413
1881 1648 1795 1729 1599 1646 1808 1678 1586 1311 1201 1082 1057 1110 1135 1263 1397 1864 2076 2131 2097 2234 2264 2269 2200 2148 2136 2090 1998 1978 1860 1442 1221 1113 1136 1140 1106 1186 1264 1108 687 483 876 918 914 846 729 826 728 663 764 745 720 695 1034 1251 1142 1147 1158 1116 1038 981 822 779 690 615 660 679 723 691 772 712 835 801 653 589 656 573 397 256 193 160 192 233 210
1901 1897 1851 1619 1668 1591 1806 1702 1652 1452 1335 1204 1134 1216 1400 1484 1754 1809 2129 2204 2201 2258 2240 2278 2221 2147 2051 2016 2140 2095 2060 1954 1712 1528 1470 956 886 898 1093 1162 944 890 999 809 869 797 682 748 919 920 940 980 822 767 982 1178 1134 1042 1054 1036 998 873 692 530 507 586 576 639 713 600 633 718 795 720 660 784 696 572 321 198 186 180 193 158 138
1874 1976 1741 1680 1563 1582 1620 1667 1523 1425 1292 1203 1163 1202 1521 1612 1676 1861 2078 2132 2169 2214 2229 2237 2189 2066 2042 2124 2125 2074 1804 1540 1306 1149 1303 1501 1418 990 857 958 1028 1106 1073 970 724 647 690 906 882 854 986 1032 865 680 1055 1264 1151 987 952 937 814 688 674 589 523 484 507 557 643 664 588 601 680 697 376 379 352 398 396 266 277 312 306 303 258
1860 1917 1751 1541 1549 1616 1541 1513 1481 1349 1258 1239 1167 1225 1592 1670 1741 1853 1938 2181 2160 2112 2145 2158 2234 2161 2172 2126 2050 2020 1908 1808 1748 1642 1021 1009 1379 1392 1409 1347 1288 1197 1047 1037 703 732 780 908 841 966 1027 886 740 845 1162 1166 1290 1107 950 826 754 728 780 645 482 505 491 455 449 540 554 558 487 545 382 437 419 460 445 376 336 602 577 521 567
1872 1816 1530 1534 1632 1679 1663 1492 1406 1359 1227 1220 1150 1231 1515 1740 1810 1808 1921 2187 2237 2222 2192 2257 2178 2168 2057 1989 2105 2105 1995 1895 1743 1394 1301 1300 936 881 1114 1249 1272 1458 1315 1178 962 888 878 957 1033 1104 1098 1000 794 872 1227 1313 1274 1134 887 857 782 790 767 650 564 480 471 474 387 475 460 437 418 392 319 430 669 636 268 189 229 186 210 444 536
1897 1687 1596 1554 1542 1571 1482 1499 1417 1195 1197 1092 1134 1233 1579 1591 1677 1684 1758 2083 2296 2176 2231 2217 2078 2140 2111 1988 1986 1998 1987 1840 1701 1652 1578 1518 1287 1131 1090 1056 1186 1295 1359 1423 1356 1052 1039 999 1104 1180 1165 1103 1051 1071 1233 1307 1332 1267 962 871 812 806 665 600 468 436 437 455 420 419 565 448 728 619 581 831 714 372 220 224 330 398 438 297 457
1898 1821 1813 1623 1636 1552 1508 1291 1222 1197 1166 1135 1125 1166 1256 1392 1546 1577 1721 1834 2103 2100 1962 2087 2016 2064 2046 1980 1890 1865 1771 1698 1678 1620 1688 1508 1410 1290 1298 1246 1158 1249 1193 1283 1351 1377 1250 1190 1248 1170 1124 719 760 908 1150 1348 1332 1376 1108 926 900 852 645 582 348 349 392 397 456 589 568 410 597 806 906 841 623 446 298 218 380 451 334 233 355
1687 1765 1706 1664 1672 1492 1212 1227 1143 1078 1061 1135 1116 1137 1229 1305 1424 1354 1584 1820 1835 1832 2077 2060 2088 2018 2002 1851 1802 1819 1736 1682 1573 1517 1536 1275 1638 1436 1565 1306 1347 1224 1249 1352 1286 1378 1554 1428 1327 1335 918 485 272 492 969 1266 1334 1402 1208 1011 996 811 746 601 504 401 332 454 476 619 499 528 897 852 792 507 400 259 228 220 165 76 66 179 233
1700 1540 1606 1574 1421 1319 1293 1188 969 907 990 1043 1145 1154 1146 1222 1204 1217 1404 1616 1738 1790 1876 1829 1930 1962 1903 1789 1780 1572 1519 1464 1462 1536 1335 1236 1216 1384 1518 1591 1471 1254 1292 1167 1380 1208 1388 1517 1359 1042 570 363 238 332 624 1201 1215 1213 1120 1028 963 829 762 661 594 409 404 594 575 751 627 772 973 756 590 486 227 279 196 149 94 75 87 258 222
1438 1524 1497 1363 1318 1282 1310 1066 934 905 917 814 919 1064 1167 1228 1242 1296 1451 1674 1549 1610 1670 1643 1762 1707 1660 1637 1481 1350 1250 1249 1404 1300 1422 1538 1320 1466 1632 1522 1542 1492 1184 1351 1256 1277 1202 1025 955 661 315 156 718 391 229 512 1074 1139 1082 1101 1059 823 746 723 699 568 436 616 695 860 946 909 749 677 646 182 138 332 184 133 79 55 70 31 44
1456 1454 1354 1295 1342 1262 1193 1076 940 866 809 838 818 998 1056 1134 986 1175 1289 1431 1618 1523 1661 1629 1506 1494 1471 1420 1332 1353 1154 1133 1356 1394 1215 1411 1257 1332 1153 1418 1456 1434 1036 1114 925 926 649 589 436 333 546 741 739 602 167 318 572 1166 1404 1344 920 843 743 756 735 664 490 562 767 947 1002 1039 1010 452 348 257 156 286 277 67 39 29 13 23 28
1495 1423 1232 1162 1277 1339 1187 1040 886 676 639 757 864 898 732 880 727 971 1163 1394 1453 1366 1296 1329 1338 1299 1240 1307 1088 1056 982 1001 1101 1208 1343 1295 1400 1411 1499 1424 1293 1240 1095 989 883 948 1093 1192 1179 1102 990 868 731 649 525 300 564 639 906 1049 917 814 721 839 837 817 776 902 991 1018 934 1075 888 471 449 331 179 100 51 41 30 16 9 32 15
1488 1338 1236 1158 1086 1112 934 962 782 662 660 695 834 777 730 696 704 772 1024 1166 1188 1142 1188 1222 1076 1084 1089 1032 961 910 1087 1138 1240 1340 1465 1450 1392 1361 1458 1467 1469 1387 1128 1195 1030 1045 1065 946 1040 973 1099 1070 864 760 789 566 399 667 744 818 855 934 903 985 947 998 956 1046 1316 1063 1249 997 898 593 437 340 205 112 71 27 38 16 1 13 20
1114 1044 1259 1092 943 902 970 747 652 564 679 914 828 868 765 766 683 766 786 983 1021 1058 1026 962 938 914 952 1029 916 884 902 1110 1441 1456 1385 1370 1246 1430 1441 1433 1491 1468 1260 1320 1393 1225 1238 1162 966 914 945 1012 976 891 829 916 597 390 562 739 843 788 1036 1115 1073 1113 1100 1131 1166 1066 1253 1217 924 570 378 302 252 129 76 44 30 27 14 10 18
1053 1166 1103 927 894 760 754 618 572 581 654 885 717 820 735 683 687 776 778 804 714 776 800 971 942 1054 1156 1186 1117 887 1194 1266 1280 1184 1266 1308 1413 1412 1698 1600 1524 1420 1368 1343 1213 1324 1222 1381 1355 1322 985 778 543 688 794 922 878 637 514 656 849 883 1030 1082 1053 1138 1177 1238 1187 1222 1226 1258 1083 530 403 400 282 160 103 47 26 4 52 14 8
1003 1109 837 849 838 740 640 546 534 504 583 601 508 644 572 689 889 929 781 1124 872 836 915 1079 1007 1207 1384 1478 1672 1478 1272 1281 1296 1252 1358 1416 1432 1456 1715 1974 1723 1712 1478 1447 1495 1584 1618 1588 1524 1322 1320 1161 1071 896 844 1012 962 902 748 733 863 922 1010 1003 995 1140 1140 1134 1172 1084 1169 1217 1176 662 480 368 320 202 126 56 61 56 71 16 1
973 1037 819 803 663 506 461 498 555 513 468 358 335 633 474 523 766 894 848 1116 1045 1053 1230 1151 1337 1342 1711 1543 1593 1356 1349 1440 1370 1362 1334 1486 1464 1567 1563 1530 1559 1465 1628 1663 1496 1514 1523 1437 1598 1502 1408 1293 1215 1130 1018 868 894 1009 810 768 992 1028 1074 1007 794 714 775 1028 1112 1128 1122 1132 1136 819 730 832 282 223 132 67 159 99 71 27 9
890 828 787 669 592 641 495 528 573 597 473 302 408 459 639 570 729 887 1054 1164 1102 1274 1278 1267 1257 1216 1279 1341 1322 1227 1329 1184 1322 1237 1196 1308 1274 996 1126 1211 1385 1436 1490 1471 1546 1431 1142 1171 1214 1249 1308 1236 1233 1280 1112 994 892 756 1032 772 952 1010 1035 1096 948 716 711 767 861 1119 1043 964 1082 802 808 759 492 358 229 149 200 241 229 84 34
908 819 866 578 552 704 596 620 670 725 656 465 476 414 640 643 867 986 1033 1152 1189 1150 1200 1168 1213 1134 1069 1196 1234 1313 1384 1569 1184 1190 1164 1163 1263 1165 1197 1030 1023 987 1056 1083 1078 1247 1080 1044 1204 1099 951 1022 1077 1232 1226 1268 1192 968 1130 913 1080 1034 1078 1167 1146 1022 730 701 698 964 1014 936 1132 861 813 760 576 675 354 265 162 254 200 55 106
1422 853 846 665 595 730 797 857 874 912 769 661 626 555 700 779 878 1004 1110 1201 1325 1310 1222 1346 1272 1124 1115 1209 1196 1188 1159 1234 1382 1144 1076 1061 948 934 940 1017 1044 836 878 648 662 811 1078 1101 1105 897 1160 1098 1096 1146 1247 1272 1393 1357 1353 1132 1236 1122 929 1062 1154 1086 1058 856 592 583 944 976 1198 1091 564 677 711 543 390 303 257 289 278 11 8
1401 992 944 775 704 807 889 973 965 935 896 835 915 729 874 990 1101 1263 1413 1446 1599 1533 1620 1488 1239 1210 1160 1186 1211 1221 1243 1220 1160 1034 976 876 827 753 761 753 758 604 599 598 650 808 924 973 1042 788 870 910 1069 1222 1278 1330 1425 1409 1316 1259 1131 1142 1187 1091 1093 1025 1104 1009 820 599 889 1083 832 1059 851 595 654 561 525 565 349 306 263 180 15
925 1112 990 840 833 911 1045 962 1071 1072 1083 1078 1022 976 1076 1275 1377 1536 1591 1706 1544 1598 1718 1282 1280 1290 1365 1411 1370 1348 1267 1124 1014 846 798 742 753 716 681 609 498 510 518 553 595 610 878 983 904 958 851 882 933 941 991 1205 1246 1271 1252 1129 1080 984 1121 1125 1105 964 904 937 950 764 846 570 626 846 787 653 576 632 694 570 681 563 438 180 48
1098 1144 1108 1019 894 1112 1219 1145 1148 1259 1277 1276 1208 1215 1288 1656 1549 1443 1472 1508 1506 1460 1471 1608 1569 1328 1333 1354 1224 1164 1001 1015 963 807 744 746 835 705 655 617 526 544 590 544 689 697 742 764 807 780 744 905 1027 978 906 923 894 1054 1195 1208 1117 959 1142 1216 1075 1006 1037 1112 923 810 804 737 746 768 763 632 523 260 690 579 440 310 274 223 40
1158 1200 1240 1053 980 1323 1351 1215 1202 1252 1259 1251 1192 1323 1509 1509 1559 1362 1599 1745 1817 1882 1809 1535 1477 1613 1630 1510 1291 1119 1013 986 964 865 836 771 875 729 663 703 635 485 656 911 800 814 762 738 742 838 728 775 910 873 874 795 870 877 904 814 880 954 857 1110 1201 1067 989 800 900 849 705 567 848 757 912 708 608 523 600 580 420 199 137 402 44
1119 1228 1257 1123 1143 1283 1460 1383 1299 1337 1414 1369 1351 1385 1470 1504 1588 1741 1855 1911 1945 1898 1872 1813 1783 1608 1397 1419 1092 1060 1051 1111 1071 1044 970 948 861 805 861 764 671 722 755 697 798 784 698 848 1008 808 769 745 708 746 782 765 726 702 745 889 865 835 800 902 960 862 874 804 782 589 444 528 763 792 753 736 610 487 469 363 379 263 137 157 244
1214 1366 1311 1351 1369 1402 1575 1466 1426 1451 1518 1555 1449 1551 1548 1600 1772 1868 1912 1774 1819 1939 1805 1879 1560 1409 1232 1206 1194 1181 1213 1214 1168 1129 1032 911 814 735 657 767 683 698 682 678 668 726 803 782 834 926 876 748 622 630 639 573 515 524 600 710 833 731 670 724 725 707 546 497 628 490 676 534 555 612 763 805 770 634 465 537 368 102 52 69 211
1436 1390 1378 1411 1564 1692 1686 1616 1603 1587 1520 1472 1494 1576 1618 1740 1887 1825 1958 1850 1840 1869 1575 1351 1303 1384 1274 1221 1150 1184 1255 1165 1004 938 860 823 902 926 795 743 623 516 682 576 644 831 602 708 839 890 961 825 798 674 508 467 475 616 563 552 638 769 650 497 472 570 573 667 627 646 544 360 310 333 708 697 741 647 485 456 437 243 138 92 6
1670 1533 1491 1530 1736 1753 1758 1689 1680 1741 1640 1535 1615 1624 1743 1760 1699 1921 2034 2167 2146 1549 1435 1549 1747 1716 1307 1358 1349 1401 1352 1198 1182 1171 1185 1002 973 933 754 599 567 578 700 535 656 606 522 539 617 639 612 745 761 896 746 538 406 440 651 605 671 731 746 520 594 607 625 600 648 555 476 528 320 226 479 480 502 420 522 517 482 296 239 79 11
1766 1760 1622 1813 1938 1819 1810 1746 1735 1719 1694 1866 1826 1987 2015 2118 2242 2192 2258 2104 1976 1789 1646 1854 1914 1922 1764 1361 1375 1353 1276 1199 950 1034 950 915 901 781 760 706 733 640 462 478 519 669 530 539 553 555 705 756 626 857 985 671 445 278 370 486 590 746 610 705 666 536 557 526 609 631 565 511 612 556 304 202 340 429 380 392 471 367 279 111 7
1819 1758 1841 1828 1852 1878 1841 1778 1726 1673 1868 2032 2101 2195 1982 1950 2127 2020 2158 1828 1652 1737 1778 1559 1539 1567 1632 1432 1154 1081 1014 950 838 745 700 588 599 569 506 512 462 499 519 556 693 630 616 538 574 878 597 879 752 889 974 754 486 720 734 437 453 553 695 572 625 655 588 578 589 584 609 583 537 572 325 268 242 204 106 332 323 413 332 205 27
1912 1880 1768 1822 2029 1970 1879 1920 1887 1862 2062 2209 2154 2157 1970 1678 1579 1882 1638 1726 1521 1403 1452 1334 1251 1338 1076 789 798 781 629 585 511 502 425 409 355 302 299 291 273 336 390 447 630 583 619 706 959 844 651 610 679 988 1275 1105 781 422 454 338 700 343 409 600 682 754 643 644 676 657 614 525 571 479 600 221 188 160 298 280 84 226 188 215 61
1836 1835 1833 2009 1931 1964 2051 2057 2017 2013 2029 2150 2199 2039 1791 1763 1600 1492 1594 1528 1374 1321 1207 1049 1020 923 832 668 506 459 397 361 332 257 244 250 235 190 197 192 195 240 236 292 362 398 364 481 492 592 572 691 508 729 944 1247 963 669 472 425 439 336 457 716 684 674 770 712 711 710 694 624 561 622 654 504 263 149 100 119 200 391 189 203 45
1823 1893 1838 1813 1877 1996 1982 1980 1947 1888 1875 1934 1981 1965 2182 2131 1739 1528 1569 1538 1440 1372 1172 1030 974 902 652 328 397 277 260 224 172 149 97 92 83 75 89 100 136 151 143 147 190 251 237 298 243 257 314 486 592 559 486 930 1180 974 675 712 612 954 1053 668 536 485 1173 591 761 680 795 716 646 579 577 488 232 124 129 139 229 132 112 144 108
1797 1768 1776 1939 1921 1986 2012 1927 1878 1906 1854 1995 1989 1944 1969 1932 2056 1966 1931 1704 1374 922 704 753 802 601 363 332 299 184 76 55 37 21 15 16 26 25 21 26 34 56 73 121 146 161 192 207 188 238 234 240 413 295 364 474 950 1190 1017 858 562 328 447 548 694 732 674 722 611 641 714 661 681 575 436 591 505 278 228 249 152 164 126 206 166
1948 1708 1874 1856 1797 1975 1840 1814 1752 1777 1867 1920 2077 2410 2123 1762 1686 1616 1532 1419 1278 794 668 673 613 391 444 343 244 51 17 10 5 4 8 11 28 30 28 48 40 54 29 56 59 99 137 159 202 258 192 286 372 458 241 177 507 680 1278 721 413 223 321 548 480 662 728 635 553 669 643 745 688 609 543 553 430 276 90 91 129 187 246 105 252
1734 1842 1932 1936 1922 1811 1610 1511 1482 1426 1536 1653 1629 1411 1517 1566 1524 1409 1132 896 872 806 635 470 502 450 388 196 92 20 24 9 6 7 13 20 29 61 32 42 64 76 74 73 112 143 151 204 173 196 163 265 370 466 552 606 718 608 700 757 638 243 280 204 301 379 348 416 450 572 652 675 785 724 642 566 616 384 128 174 82 127 187 90 192
1717 1734 1782 1656 1605 1554 1326 1341 1340 1287 1305 1393 1384 1235 1154 1024 1044 1097 1030 864 831 677 527 508 446 340 234 120 69 26 20 36 43 24 40 15 31 55 64 76 84 103 157 161 240 280 215 204 239 152 214 220 445 401 441 594 385 710 646 572 526 628 343 132 123 333 367 373 460 630 822 1148 931 747 838 687 652 403 306 152 112 92 99 160 142
1576 1369 1445 1458 1487 1478 1450 1432 1397 1383 1384 1350 1182 1080 990 919 860 806 824 753 470 484 464 399 159 189 148 71 34 27 54 16 11 30 19 7 43 92 103 88 99 146 205 208 225 235 269 282 318 239 186 500 609 467 530 610 608 194 513 655 552 529 604 516 213 325 299 335 312 255 511 714 904 1042 901 655 531 530 678 322 121 71 76 152 190
Wind_Speed
30 35 35 37 35 38 38 40 39 36 31 27 22 18 19 19 18 18 18 19 20 20 21 22 21 21 20 19 19 20 21 21 21 21 21 20 20 19 19 19 19 19 18 18 18 17 16 16 16 16 16 16 17 19 19 19 17 17 17 16 16 15 15 15 15 16 15 14 14 13 13 14 14 15 15 16 14 12 10 8 6 6 6 9 12
34 35 35 36 37 38 38 40 39 36 30 26 23 18 18 18 18 18 18 19 20 21 20 21 20 20 19 19 19 19 19 20 21 20 20 20 20 20 19 19 19 19 19 19 18 17 16 16 17 17 17 17 19 20 20 19 19 19 17 17 15 16 15 15 15 16 16 15 16 16 16 16 14 15 15 16 15 13 10 9 7 6 7 11 12
35 35 36 37 39 37 38 39 39 35 30 26 22 19 18 18 18 17 18 19 20 19 20 19 19 19 19 19 18 17 18 19 20 20 19 20 21 20 20 20 20 20 20 20 18 17 16 17 17 18 18 18 19 19 19 19 18 17 17 17 16 15 15 16 16 15 15 16 16 16 18 17 16 15 15 16 16 13 11 10 9 8 9 11 13
37 35 35 36 36 35 38 39 37 34 30 26 22 19 18 18 17 17 17 18 18 19 19 19 19 19 18 18 17 18 18 19 20 20 20 19 20 21 20 20 20 21 20 20 19 18 17 17 18 18 19 18 18 17 17 17 16 15 15 16 16 16 16 16 16 16 16 15 13 12 12 14 15 16 15 16 17 14 13 12 12 12 12 13 14
37 35 32 31 33 36 37 37 36 33 29 26 22 20 18 18 17 16 16 16 18 18 19 19 18 18 18 17 18 19 19 19 19 19 20 19 19 18 18 18 19 20 20 21 20 19 18 18 18 18 19 18 17 16 16 15 15 14 13 14 15 15 16 17 17 17 16 14 12 11 13 14 14 16 15 16 17 14 13 12 12 12 12 14 14
35 33 31 31 33 35 36 36 35 33 29 25 22 20 19 18 18 17 16 16 17 19 19 18 17 17 17 18 19 19 20 20 19 18 18 18 18 19 18 18 17 18 19 20 20 20 20 19 18 18 18 17 16 15 15 15 14 13 13 14 15 16 16 16 16 16 16 14 11 12 13 13 14 14 15 15 16 14 14 13 12 12 13 13 14
35 32 32 33 33 35 36 36 35 32 28 24 21 20 19 18 18 17 17 16 17 18 18 18 17 17 18 20 20 20 20 19 18 17 17 18 18 19 19 18 17 17 19 19 20 19 20 20 18 17 16 16 15 14 14 14 14 13 13 14 15 17 16 16 16 15 13 11 12 12 12 13 13 13 16 13 15 15 14 14 13 13 13 12 11
33 32 34 34 32 36 36 36 35 31 26 23 21 21 20 18 18 17 17 18 17 17 18 16 16 18 19 20 20 19 19 18 18 17 17 17 18 19 19 19 17 17 18 19 19 19 19 19 19 17 16 15 14 14 13 13 13 13 12 15 17 18 17 16 15 14 12 13 12 12 12 13 13 13 15 13 14 14 14 14 13 13 13 13 11
35 34 35 35 34 38 35 33 32 28 24 21 21 20 19 18 18 17 17 17 17 17 17 16 18 19 20 21 20 19 18 17 17 16 16 16 17 18 19 20 19 17 17 19 18 17 18 18 18 17 16 14 15 15 13 13 14 14 15 19 19 18 18 17 15 14 12 12 12 13 12 13 11 12 15 14 14 15 14 13 15 15 14 13 12
37 34 35 34 34 37 33 32 30 27 23 21 20 20 19 19 19 18 17 17 17 16 16 17 18 20 21 21 20 19 17 16 16 15 15 15 16 17 18 19 19 19 18 18 18 18 18 18 17 16 15 14 15 15 14 14 15 17 20 22 20 18 18 17 16 12 12 13 14 14 14 12 12 12 16 15 16 16 16 16 14 13 14 15 16
38 36 36 35 37 34 29 27 28 25 22 21 20 19 19 18 18 18 18 17 17 16 15 17 19 21 22 21 19 17 16 16 17 16 15 15 15 16 17 17 18 20 20 18 18 18 19 18 17 16 15 15 15 15 15 15 16 19 20 21 20 19 18 17 13 13 13 14 14 15 16 13 14 13 15 15 15 16 17 16 15 14 15 15 15
39 38 37 34 36 31 26 24 25 24 22 21 20 19 19 18 18 18 17 16 16 16 16 17 19 22 21 20 18 18 17 16 16 15 15 15 15 15 16 17 17 18 19 17 16 18 19 20 19 18 17 17 17 16 16 16 17 18 19 19 19 19 17 15 12 14 14 15 16 15 15 14 16 16 17 17 17 16 17 17 15 14 14 15 14
41 40 37 33 30 27 23 22 22 22 21 21 20 20 19 18 18 18 17 14 14 16 17 17 20 21 20 18 18 18 17 17 17 16 15 15 15 15 15 17 17 18 19 19 18 18 19 20 20 19 19 18 18 18 18 18 18 18 18 19 19 19 18 15 14 15 15 16 16 16 16 15 16 18 17 18 19 19 19 19 17 15 15 14 13
42 39 34 30 24 24 20 20 19 21 21 20 19 18 18 17 18 17 15 14 15 15 17 19 20 21 19 18 18 19 18 18 18 17 17 17 17 17 16 17 18 18 19 19 19 19 21 21 21 21 20 19 19 19 19 20 20 19 18 20 20 20 19 15 15 16 16 16 16 16 16 15 16 17 16 18 19 19 19 19 18 16 15 14 13
43 38 32 27 22 19 21 19 19 19 20 20 20 18 16 16 16 16 15 15 15 16 19 20 21 21 19 18 20 19 20 20 20 18 17 17 18 17 17 17 17 17 18 18 19 20 21 21 20 20 20 19 19 19 20 21 22 21 19 20 21 20 17 16 15 16 16 16 16 16 16 16 16 14 18 18 18 19 19 19 19 19 17 16 14
39 35 30 23 20 17 16 18 19 19 19 20 20 19 17 16 16 15 15 16 16 18 20 20 21 20 19 19 20 21 22 22 21 21 20 19 18 17 17 17 17 18 18 19 20 20 20 19 20 20 19 19 19 19 19 21 22 22 21 20 20 19 17 15 16 16 16 16 16 16 16 17 16 16 16 16 17 18 18 17 18 19 18 17 15
35 31 25 20 18 16 15 15 17 19 18 19 20 20 17 16 15 14 16 16 18 18 21 21 21 21 19 19 21 22 23 23 23 23 22 21 19 19 18 18 17 17 19 20 20 21 20 20 20 19 19 19 18 18 19 20 21 21 21 21 21 20 19 15 17 16 16 17 17 16 16 16 16 16 16 16 17 18 18 18 18 19 19 18 17
30 26 21 17 16 16 15 14 15 14 15 17 19 19 17 15 14 14 16 16 18 20 21 19 20 20 19 20 22 23 24 25 24 23 24 23 22 20 20 19 18 18 19 20 20 20 20 21 20 20 20 20 19 18 20 20 20 21 21 20 21 21 20 14 16 16 17 18 17 17 16 18 19 16 15 17 18 19 18 18 17 18 19 18 17
25 21 17 15 15 15 15 14 14 13 14 14 13 16 17 15 16 16 18 18 18 21 21 20 21 20 19 20 21 23 24 24 25 24 24 24 23 22 20 19 19 18 18 20 21 21 20 21 21 21 21 21 20 19 19 20 19 20 22 22 21 21 20 15 15 16 17 16 17 17 18 20 13 16 18 19 19 18 17 17 17 17 18 19 17
20 17 15 14 14 14 14 13 12 13 13 13 13 13 16 16 17 18 19 19 19 21 21 20 19 19 19 19 19 21 21 21 23 23 23 23 23 20 23 20 19 18 18 18 19 20 21 21 21 22 23 21 20 19 19 21 21 20 21 22 22 23 19 16 16 16 16 17 16 16 20 16 17 19 19 19 19 17 17 16 17 18 17 18 18
16 15 14 13 14 14 14 12 12 13 14 14 12 13 15 18 18 19 20 21 20 20 20 20 18 18 19 19 18 18 18 18 18 17 20 20 22 22 23 22 19 18 17 18 18 18 19 20 20 22 23 21 19 19 20 21 23 22 21 20 22 18 17 18 18 17 15 17 16 17 20 17 18 19 20 19 17 17 16 15 14 nan nan 16 16
15 14 13 13 13 12 13 12 12 14 14 12 11 12 14 15 16 17 17 19 20 20 18 17 16 16 17 17 16 16 16 17 17 17 17 18 21 20 21 23 21 19 18 17 17 17 18 18 19 21 20 19 16 18 22 24 23 24 22 21 17 16 17 17 18 18 17 17 16 20 19 18 17 18 18 18 17 18 16 13 nan nan nan 16 17
14 13 13 13 11 11 12 12 13 14 15 14 12 13 15 15 16 16 17 17 17 17 16 16 14 14 14 14 15 15 15 16 16 16 17 20 19 18 18 20 21 21 19 19 18 16 17 17 17 18 17 16 15 18 20 23 25 26 24 20 16 17 18 16 17 17 18 19 16 22 18 17 16 17 15 16 15 19 17 15 nan nan nan nan nan
15 13 13 12 12 11 11 12 14 15 14 13 13 13 14 14 15 16 16 17 17 15 15 15 14 14 14 14 13 14 14 15 16 16 18 20 21 22 19 19 22 22 20 19 18 18 15 18 17 16 16 14 14 15 18 21 24 25 24 21 18 19 19 17 15 16 17 20 18 23 17 15 13 13 14 14 15 21 16 nan nan nan nan nan nan
14 14 14 13 13 12 12 12 14 14 15 14 14 13 14 15 16 16 17 17 17 16 15 14 14 14 14 13 13 13 13 14 16 18 19 20 20 19 20 20 20 21 21 20 19 18 16 16 16 15 14 13 12 13 14 18 22 25 25 23 20 21 21 19 15 14 16 19 19 23 18 16 13 12 13 14 16 17 nan nan nan nan nan nan nan
15 13 13 14 14 13 12 13 13 14 15 15 15 15 16 16 17 17 17 17 16 16 15 15 14 14 13 13 13 13 13 15 17 18 18 19 19 19 19 20 20 20 20 19 19 18 18 17 16 15 15 14 13 12 12 14 18 22 24 23 21 21 22 21 17 15 15 17 19 22 18 17 14 13 14 14 16 15 nan nan nan nan nan nan nan
13 12 13 13 13 13 13 14 14 14 15 15 15 16 16 18 18 17 17 17 16 16 16 15 14 15 14 13 13 13 14 15 16 16 16 17 18 18 19 19 19 19 20 19 18 19 19 18 17 16 16 14 12 13 13 14 14 16 20 21 20 20 22 23 20 17 16 16 17 20 17 17 16 15 15 14 15 14 nan nan nan nan nan nan nan
12 13 13 13 13 14 14 15 15 15 15 15 16 16 17 18 18 18 17 17 17 17 16 15 15 14 14 14 13 13 14 15 16 15 14 15 16 16 17 18 19 19 20 20 18 19 19 19 18 17 17 15 12 12 12 14 15 15 16 18 19 18 20 23 23 20 18 17 16 18 16 17 17 17 16 14 15 13 12 nan nan nan nan nan nan
14 14 13 12 13 14 16 16 16 15 15 15 15 16 17 17 18 18 18 17 18 17 16 16 15 15 14 13 13 14 15 16 16 15 15 15 15 15 16 18 19 19 19 19 20 19 19 19 19 17 18 17 16 14 14 14 16 17 17 17 18 17 17 20 22 21 19 17 17 16 18 15 17 19 15 14 14 13 13 nan nan nan nan nan nan
16 15 14 13 14 15 16 16 16 15 14 14 15 16 17 17 17 18 17 18 18 17 16 16 15 14 14 14 13 14 14 15 15 16 15 15 15 14 15 16 16 18 18 17 19 19 18 17 17 17 17 18 18 18 17 15 15 18 18 17 19 18 17 18 22 22 21 20 19 18 20 15 16 18 16 13 14 13 13 nan 14 nan nan nan nan
17 15 14 13 14 14 15 15 15 15 14 14 15 16 16 17 17 18 17 17 18 17 16 16 16 15 14 13 13 14 15 16 16 15 16 15 15 14 14 14 15 16 17 17 18 19 17 16 16 15 14 15 16 17 18 17 16 17 19 18 18 18 17 18 20 22 22 22 21 20 20 19 15 16 16 15 16 13 14 11 11 14 12 nan nan
16 15 14 14 14 13 14 14 15 15 15 15 15 16 16 17 17 17 17 17 17 16 17 16 16 15 14 13 13 13 14 15 15 15 15 15 14 14 15 15 16 16 16 17 17 18 18 16 16 16 15 15 16 16 17 18 18 17 18 18 19 18 18 18 19 21 21 22 22 22 21 20 17 15 15 16 17 12 13 12 11 13 12 nan 12
15 14 14 13 13 13 12 14 14 15 15 16 16 16 16 17 17 17 17 17 16 17 16 16 16 16 14 13 13 14 15 15 15 15 15 15 15 14 15 15 16 16 16 15 14 17 19 19 18 18 18 18 18 17 17 17 18 18 18 17 18 18 18 18 19 21 22 23 24 23 22 19 17 18 15 16 17 14 12 11 12 11 12 nan nan
14 13 14 14 14 13 12 13 14 15 15 16 16 16 16 17 17 17 17 17 17 17 16 17 16 15 13 12 13 14 15 16 16 15 16 15 15 15 15 15 16 15 14 14 15 17 19 20 21 21 20 19 20 20 20 18 18 19 19 18 18 18 19 19 19 21 23 22 24 24 23 21 18 17 17 16 16 16 13 10 10 10 11 12 nan
14 14 14 16 16 14 14 14 14 15 16 16 17 17 17 17 17 17 18 17 17 16 17 16 15 14 13 13 14 16 16 16 17 16 16 16 16 16 16 17 16 15 15 15 15 16 18 19 21 22 22 21 21 22 22 21 19 18 18 18 18 18 20 21 21 20 21 21 23 24 24 22 20 19 18 18 19 17 15 11 10 9 8 11 nan
15 16 16 17 16 15 15 15 15 16 17 17 17 17 17 16 16 17 17 16 16 16 16 15 15 14 13 14 16 16 16 16 17 17 16 16 15 15 16 16 16 15 15 14 15 16 18 19 20 21 22 22 23 24 25 23 23 21 21 20 18 19 20 22 23 22 21 22 22 24 25 23 22 20 18 18 19 19 18 14 11 11 10 12 nan
16 16 16 16 16 15 15 15 15 17 18 18 17 17 16 15 15 17 17 16 16 16 16 16 15 14 14 15 16 16 16 17 17 17 17 16 15 15 14 14 15 15 14 15 15 17 17 19 20 20 22 23 24 23 24 25 25 24 23 22 20 20 19 21 24 25 25 24 24 25 25 23 24 22 21 18 19 19 20 16 14 12 13 14 nan
16 16 16 17 17 16 15 14 15 14 15 16 16 16 15 15 16 17 17 16 16 16 16 15 15 15 15 15 15 16 17 18 18 18 17 16 15 14 13 13 14 14 15 15 15 16 17 18 20 22 23 24 25 25 25 25 27 27 26 25 23 21 19 21 23 25 26 27 27 25 24 23 24 23 21 20 19 20 18 18 14 13 12 13 14
16 16 17 17 17 16 15 15 15 13 14 16 16 16 17 17 18 17 17 16 15 15 16 16 16 16 16 16 16 17 17 17 17 17 16 15 14 13 13 13 13 13 14 14 15 16 17 18 19 21 24 25 26 27 27 28 27 27 26 26 27 24 21 20 22 24 26 25 25 25 25 23 22 23 21 21 21 19 19 17 15 11 nan nan 14
16 15 16 16 17 16 16 16 15 14 14 16 16 17 18 17 17 16 16 16 14 15 16 16 17 17 16 16 17 17 17 17 16 16 15 14 14 14 14 13 13 13 14 14 15 18 17 18 19 21 22 25 29 30 31 30 29 29 28 28 28 27 25 23 21 23 25 25 25 27 25 22 21 21 20 19 20 19 18 17 15 14 13 nan nan
16 15 16 16 16 17 17 16 15 14 13 15 17 18 18 18 17 15 15 15 15 16 17 18 18 19 18 18 18 18 17 16 16 16 15 14 14 15 15 14 14 14 14 15 15 16 18 19 20 22 22 23 26 30 33 33 32 32 34 31 29 28 28 25 22 23 24 25 25 26 25 23 21 21 22 21 20 20 20 19 19 17 16 nan nan
15 14 15 15 15 17 15 15 13 12 12 14 16 16 15 17 16 16 15 15 15 17 19 20 19 19 19 18 18 18 17 17 17 16 15 15 15 15 15 15 15 15 15 16 17 19 20 22 23 24 28 27 27 30 34 38 37 35 32 31 31 33 30 27 25 23 23 25 24 24 23 22 21 21 22 23 22 21 19 20 21 21 19 17 nan
14 15 15 15 16 15 14 14 12 12 12 13 13 14 15 17 16 16 15 16 16 17 19 20 19 19 19 19 19 19 18 18 17 17 16 16 15 15 15 15 14 15 17 18 19 19 21 23 25 27 27 32 32 34 37 40 35 37 34 31 28 28 32 31 27 23 23 24 24 22 23 23 20 20 21 24 23 21 19 20 20 21 21 19 nan
18 17 16 15 14 13 12 12 12 11 12 12 13 17 17 17 17 15 15 16 18 19 20 20 20 21 21 21 21 21 21 20 19 19 18 17 16 15 15 15 15 16 17 18 19 20 21 22 26 28 30 30 34 36 40 40 39 36 34 34 33 30 23 26 29 28 24 22 23 22 22 21 22 20 20 19 21 22 23 26 nan 19 20 21 nan
17 17 15 15 13 11 11 10 10 10 11 12 15 16 17 16 16 16 16 17 18 20 21 21 21 21 22 22 22 22 23 22 21 20 19 18 18 17 16 16 16 17 18 19 19 19 20 22 23 27 31 33 33 34 36 41 40 38 32 33 34 31 25 25 28 27 29 25 22 21 21 20 22 22 21 18 20 22 24 24 22 25 24 20 nan
19 19 17 16 12 11 11 10 10 10 12 14 15 15 15 15 15 15 16 17 19 19 21 22 22 22 22 23 23 23 23 22 21 20 nan nan nan nan nan 17 17 18 19 19 20 21 22 23 25 27 27 30 33 35 33 34 35 34 35 35 34 27 28 33 33 29 36 28 26 24 21 20 21 22 21 20 19 20 22 23 25 25 23 22 19
20 19 18 15 13 12 11 9 10 13 14 16 15 15 16 16 16 16 16 17 19 20 22 21 22 23 23 23 23 23 nan nan nan nan nan nan nan nan nan nan nan nan nan 21 21 21 22 23 25 27 29 31 33 34 33 29 30 32 33 36 35 31 27 27 26 28 24 28 28 26 22 21 20 20 19 20 19 20 22 26 26 23 25 27 21
19 19 17 15 14 15 14 12 12 15 17 17 17 17 18 19 19 18 17 17 19 22 23 23 22 23 23 23 23 nan nan nan nan nan nan nan nan nan nan nan nan nan nan nan nan nan 23 23 25 26 29 32 33 34 31 29 29 29 36 33 34 29 22 24 26 24 25 23 23 26 24 23 22 20 18 17 18 22 nan nan 26 26 28 26 23
18 18 17 15 14 16 17 15 14 16 18 19 19 19 19 19 18 17 18 17 19 20 21 21 22 21 22 22 nan nan nan nan nan nan nan nan nan nan nan nan nan nan nan nan 23 23 22 23 26 28 29 31 33 34 34 31 30 27 28 29 31 32 27 24 27 26 25 22 19 19 21 25 24 20 19 19 19 21 22 24 nan 26 26 nan 25
17 18 18 16 16 17 19 19 18 16 16 18 18 19 19 18 18 17 19 18 19 20 21 21 20 18 19 20 nan nan nan nan nan nan nan nan nan nan nan nan nan 21 21 21 22 21 21 22 23 25 28 30 34 33 33 32 29 28 27 25 24 26 28 28 27 23 22 19 17 19 22 24 23 21 21 21 21 19 21 23 23 nan nan 28 29
17 18 19 18 18 19 20 21 20 18 16 15 16 18 18 17 17 17 18 20 20 21 21 21 19 18 18 nan nan nan nan nan nan nan nan nan nan nan 20 nan nan 21 21 21 21 20 20 21 21 22 25 30 33 32 33 31 28 24 24 25 23 21 21 23 24 25 22 20 19 15 17 19 20 19 21 21 24 20 21 22 22 nan nan 30 30
Wind_Direction
323 323 324 320 326 328 331 329 326 327 324 319 314 311 314 318 321 326 330 332 334 336 338 339 339 340 342 343 343 345 344 347 346 344 341 334 329 327 329 332 335 331 323 319 318 318 319 314 305 298 293 291 286 284 279 277 277 276 273 271 272 275 277 279 280 280 281 281 282 280 283 278 275 277 275 271 268 261 259 258 267 281 282 275 269
322 323 322 321 322 326 329 326 324 325 322 316 311 307 314 319 322 326 329 331 333 335 338 338 338 338 342 344 344 343 345 345 343 339 333 329 326 324 322 325 328 329 324 321 316 311 312 312 310 303 296 293 289 281 275 273 273 274 275 275 276 277 279 278 278 280 282 283 284 286 281 275 273 276 276 273 268 264 261 255 252 278 279 268 269
317 321 320 318 321 324 326 324 322 322 319 314 308 307 313 319 321 325 327 328 330 333 337 338 339 339 342 344 344 342 343 340 336 332 329 325 321 320 320 321 324 324 324 322 316 310 308 310 309 306 302 297 288 278 272 271 271 269 271 277 279 281 282 281 280 277 275 275 276 281 278 276 275 275 276 274 269 264 262 262 261 269 274 268 269
317 320 319 319 320 323 325 321 319 319 316 312 307 307 313 317 319 322 324 325 328 332 335 338 339 340 342 342 342 341 341 335 332 330 327 323 318 316 318 317 316 319 323 322 318 312 308 308 305 307 305 296 289 280 275 270 266 264 268 275 281 282 282 281 279 276 274 272 276 286 287 285 280 272 275 276 272 269 266 263 261 260 267 266 263
316 319 319 321 323 324 324 319 317 315 313 311 308 309 313 316 317 321 322 322 326 329 333 338 339 340 341 342 339 336 334 332 331 326 323 320 315 313 311 312 315 315 320 321 319 314 311 306 302 305 303 300 293 285 278 272 265 263 266 277 285 286 285 284 282 277 271 268 270 279 277 279 277 271 273 274 272 270 267 265 264 264 264 262 262
315 316 318 320 322 324 323 318 314 312 313 311 308 310 314 316 315 316 318 320 322 326 330 334 337 340 341 338 333 333 330 326 325 322 318 317 316 314 313 314 313 314 318 321 319 317 314 312 306 302 301 300 296 289 282 273 267 265 269 278 288 287 286 283 281 277 274 276 283 276 275 276 277 276 273 273 271 269 268 265 263 261 259 263 269
310 312 313 316 319 323 321 315 311 311 312 311 309 310 314 314 313 313 315 316 319 322 326 330 335 337 335 332 331 327 324 320 319 320 320 319 320 319 316 315 314 311 313 318 320 320 318 313 308 300 296 293 290 287 279 270 265 266 274 285 294 290 287 287 284 282 282 291 277 277 274 271 275 277 271 270 270 270 268 266 264 264 265 263 262
306 308 309 311 315 319 318 312 309 309 311 311 309 310 312 313 311 310 312 312 313 319 322 328 332 332 329 329 328 324 320 320 323 323 323 323 323 322 318 316 314 311 308 312 321 320 321 316 311 304 295 288 283 279 274 271 269 270 279 293 297 292 290 289 287 282 279 278 276 274 275 271 269 272 268 266 267 272 272 268 268 272 271 270 279
304 305 305 307 311 315 313 310 307 307 310 309 308 309 311 311 308 306 307 308 311 316 319 326 328 327 326 327 322 323 321 320 317 314 316 317 317 317 318 318 316 312 310 309 310 319 320 320 314 307 300 287 279 274 271 273 276 276 282 296 296 291 290 289 289 295 289 281 281 280 280 278 271 269 270 268 266 267 268 281 289 280 275 274 274
301 302 304 305 309 311 308 306 305 306 308 307 307 308 309 309 303 301 302 304 308 311 318 323 325 326 325 322 323 319 314 313 313 317 319 321 319 321 323 321 319 317 316 312 310 313 320 318 315 309 298 291 281 274 272 277 284 285 289 294 294 290 288 287 288 285 287 287 283 277 268 256 270 267 270 270 270 269 270 257 254 260 272 279 277
299 301 304 304 307 305 303 303 302 303 305 304 304 305 305 303 299 298 299 301 303 309 316 321 324 324 321 319 314 313 312 314 320 320 319 320 323 323 321 320 316 317 314 310 309 313 319 312 308 308 308 299 287 277 272 279 288 291 294 298 295 292 289 291 301 288 288 287 281 279 279 275 268 268 274 275 274 272 270 268 269 272 271 271 273
298 301 303 303 305 302 300 299 300 301 302 301 302 303 302 300 299 299 298 300 304 307 312 320 325 321 317 316 315 312 309 308 312 315 316 316 318 315 307 300 301 303 308 310 310 312 313 313 311 311 310 302 294 286 281 284 289 292 297 298 294 293 292 291 286 287 289 287 284 278 275 274 272 274 277 279 279 276 272 272 271 269 268 270 274
299 302 303 305 305 299 297 297 299 298 298 298 299 303 301 300 297 298 298 298 302 309 313 314 316 318 316 315 311 309 307 308 312 317 319 318 314 310 306 304 303 307 311 311 311 314 315 314 313 310 307 303 298 294 293 292 292 292 294 296 297 296 295 295 289 289 291 291 291 291 285 278 274 273 277 280 279 275 272 270 270 270 266 266 269
300 302 304 305 300 297 292 294 294 296 294 295 295 298 301 298 296 291 292 296 303 307 310 313 316 316 315 313 314 312 313 315 316 320 322 321 316 314 312 310 308 307 307 307 308 310 313 313 313 310 306 303 299 296 296 297 298 296 295 295 297 299 299 297 290 292 292 292 291 290 287 286 281 286 283 280 279 276 271 270 270 268 267 267 268
302 303 303 302 296 292 292 291 291 291 289 289 292 296 293 289 287 289 290 296 304 308 311 315 316 314 312 315 316 315 316 314 316 318 319 319 318 314 310 306 300 297 298 299 301 305 310 309 306 306 304 301 300 298 298 300 303 303 299 297 298 302 309 299 299 293 291 290 290 293 290 287 287 288 283 281 279 277 276 274 272 273 273 271 270
301 301 300 297 292 286 286 289 288 287 287 289 293 296 289 289 290 289 295 299 303 309 312 313 313 313 311 313 314 316 319 319 319 321 322 320 317 316 315 315 309 301 300 300 303 305 307 305 305 305 303 299 298 297 298 302 307 309 305 300 299 300 300 295 294 293 290 290 289 287 288 285 290 296 294 290 287 287 285 282 280 277 277 275 274
297 297 296 294 290 283 280 286 285 288 285 289 294 297 291 291 288 291 299 300 303 308 309 311 311 311 309 310 313 317 318 319 321 322 322 321 319 319 318 318 314 307 301 300 300 299 299 301 301 300 301 299 296 296 298 304 310 312 308 304 300 298 296 297 291 292 289 287 288 288 287 290 291 287 291 293 294 292 291 288 284 283 282 283 279
293 294 294 290 287 283 281 282 285 283 283 289 294 296 294 289 285 290 297 300 304 305 306 307 310 309 309 312 316 318 320 319 322 323 324 324 324 323 323 321 317 310 305 302 300 299 297 294 293 293 296 300 300 298 296 301 309 314 311 307 303 297 296 295 289 288 288 289 288 287 286 283 295 297 293 290 292 295 293 291 289 289 287 284 283
291 291 289 286 283 282 282 280 278 280 286 288 292 298 296 290 288 293 297 300 303 305 306 307 310 309 308 311 317 320 321 321 323 324 325 326 324 326 325 323 318 312 306 304 303 302 298 294 293 291 293 298 301 299 295 297 304 311 312 311 308 302 297 295 286 286 286 287 284 286 284 291 291 293 293 290 294 292 293 294 294 295 296 292 287
289 290 283 279 279 281 278 275 275 280 284 287 290 292 291 291 294 296 296 296 301 302 302 305 308 308 306 309 316 323 323 322 323 325 323 325 328 324 324 322 319 314 309 305 303 303 302 297 294 293 291 293 297 298 293 293 300 307 309 309 311 309 301 290 286 284 283 280 281 281 282 295 294 296 295 292 290 289 292 297 296 299 298 298 294
287 287 280 278 278 279 280 275 276 281 285 286 286 286 287 294 292 295 293 294 295 297 300 302 307 305 306 307 315 320 319 320 323 319 324 323 325 326 321 321 320 315 311 307 304 302 301 299 297 294 294 293 294 295 290 292 297 303 305 308 310 309 300 295 291 285 281 282 286 280 287 292 296 297 296 293 288 288 292 295 300 nan nan 298 295
286 281 280 275 278 278 282 277 273 280 282 281 280 281 286 291 291 294 296 293 292 293 295 299 306 306 304 313 314 314 318 321 319 320 324 324 321 319 321 320 321 317 312 307 301 299 298 294 292 293 294 293 293 301 299 295 298 304 306 307 308 300 298 297 295 288 284 281 284 281 293 295 298 298 293 293 289 289 291 297 nan nan nan 300 301
289 282 279 282 279 279 282 280 277 279 282 281 280 281 286 285 286 288 288 289 291 291 294 298 304 301 303 303 310 313 314 316 320 324 323 322 317 313 318 314 318 316 310 306 298 296 290 291 292 294 299 304 305 298 299 299 300 306 307 307 303 301 297 296 294 290 288 281 280 285 296 296 300 295 297 289 286 292 293 296 nan nan nan nan nan
289 284 282 275 280 276 280 278 278 279 278 274 277 279 282 280 280 281 283 285 286 289 292 297 300 299 301 303 306 307 310 316 318 321 319 320 320 323 318 320 318 318 310 317 310 305 301 302 294 301 316 316 309 306 303 299 299 303 303 303 306 305 303 299 294 291 288 288 282 292 295 297 300 284 284 281 285 294 303 nan nan nan nan nan nan
276 277 274 274 271 263 267 275 277 276 276 275 276 278 278 275 276 277 278 279 282 287 290 292 292 295 296 297 299 303 309 317 321 322 321 321 320 320 324 322 320 320 321 317 317 313 309 302 304 305 304 310 311 306 303 302 300 302 303 305 308 309 306 303 299 294 294 291 288 294 297 302 300 284 277 281 282 295 nan nan nan nan nan nan nan
272 273 276 273 266 260 264 268 274 276 277 275 276 275 276 274 276 277 280 283 286 287 289 291 293 293 294 297 302 307 312 318 323 322 320 318 317 316 318 321 325 325 324 322 317 317 314 311 307 303 304 309 310 306 304 303 305 303 303 305 307 309 306 302 301 299 294 293 292 301 293 298 294 288 283 283 286 293 nan nan nan nan nan nan nan
278 271 263 262 264 264 265 270 273 277 280 278 279 278 276 276 276 280 283 284 286 289 289 290 292 292 292 294 299 305 312 320 324 322 319 317 313 314 315 319 323 325 326 328 324 321 319 316 313 310 309 312 311 309 310 310 305 305 304 304 306 308 305 300 295 293 291 291 293 307 297 290 295 292 288 289 289 291 nan nan nan nan nan nan nan
273 272 263 264 262 268 270 273 275 280 280 281 282 280 279 281 282 284 283 285 287 287 288 288 288 289 291 294 295 301 312 321 323 322 315 314 311 312 317 321 325 327 329 332 329 323 323 322 321 319 317 313 309 305 301 303 305 305 305 305 304 305 304 300 293 290 289 291 294 306 306 293 289 291 295 297 292 292 291 nan nan nan nan nan nan
274 271 269 267 267 266 272 274 278 281 282 283 284 281 285 286 286 283 283 288 286 286 288 288 287 287 289 291 297 306 316 322 323 320 321 320 319 318 320 325 329 331 333 336 333 330 329 327 325 323 320 316 313 307 299 299 302 303 305 306 305 303 303 300 293 290 288 287 292 297 312 302 290 293 303 298 292 292 292 nan nan nan nan nan nan
273 272 272 270 268 270 275 276 280 281 284 282 281 281 286 288 285 284 285 289 286 287 289 287 284 285 286 292 297 305 315 317 319 321 322 320 320 319 320 324 326 328 332 335 329 329 329 329 328 328 327 324 319 314 307 305 305 303 302 302 303 303 301 300 296 293 291 290 292 292 305 305 293 292 296 289 295 294 296 nan 298 nan nan nan nan
273 278 274 269 269 275 275 278 278 281 279 279 278 278 281 284 286 284 286 284 284 287 287 284 283 284 285 290 298 311 317 320 319 316 316 316 315 315 316 318 320 320 324 328 324 324 326 327 329 330 330 326 324 321 320 314 309 305 300 299 299 299 299 297 296 295 296 294 294 296 300 310 297 290 289 285 292 302 297 289 297 298 297 nan nan
276 277 270 269 274 278 278 279 278 277 274 272 273 275 279 284 286 283 283 282 283 282 282 282 283 284 286 292 302 312 314 313 312 310 311 311 311 311 313 314 313 313 318 322 325 325 327 330 330 330 332 332 328 327 325 322 319 311 304 301 299 298 296 294 293 294 295 297 298 300 303 301 304 291 285 283 293 289 300 300 288 300 295 nan 309
267 272 269 273 276 280 279 282 281 279 279 278 276 277 278 282 284 284 282 280 279 280 280 282 283 284 288 296 303 307 307 306 305 307 309 309 308 308 309 309 308 311 318 321 324 326 326 327 324 321 324 324 325 326 324 322 321 316 308 300 295 297 295 292 290 289 291 294 296 300 308 307 289 290 282 282 284 281 292 301 299 301 298 nan nan
268 267 270 275 271 267 270 272 279 283 284 283 282 281 282 283 283 283 280 278 277 278 278 278 281 285 290 297 300 298 299 300 304 307 308 308 307 307 305 306 305 307 312 312 314 317 319 320 321 320 320 321 323 320 319 321 317 311 307 301 294 289 289 291 288 287 287 291 294 297 303 300 291 275 274 290 288 286 285 288 298 299 295 292 nan
267 272 277 276 278 274 273 276 285 287 288 285 285 284 286 284 282 279 275 275 275 275 275 278 283 286 289 293 292 294 298 302 305 308 307 307 309 309 308 308 308 310 311 311 313 315 317 318 320 320 319 321 321 321 321 319 317 314 310 307 300 293 289 288 286 284 285 287 290 294 295 294 286 280 271 266 285 291 289 292 282 271 285 290 nan
275 275 275 274 281 282 282 283 290 289 285 282 281 283 283 277 274 273 270 272 271 270 273 275 277 281 285 287 291 296 300 304 308 309 309 308 309 310 310 310 310 312 313 314 315 317 316 316 317 319 318 320 319 319 317 318 318 318 314 308 302 297 291 288 287 287 285 283 285 287 290 292 289 282 276 268 267 281 293 291 281 263 258 294 nan
275 276 275 276 280 282 284 286 288 288 285 280 278 277 275 274 270 267 269 271 271 269 270 273 275 275 277 283 290 297 303 307 311 311 310 309 309 310 309 309 311 314 318 319 320 317 317 317 316 316 320 318 317 316 316 315 315 316 315 311 304 299 297 293 290 288 286 285 282 281 284 289 288 283 275 270 267 266 283 288 280 271 261 268 nan
270 269 272 274 279 283 282 285 286 288 283 275 271 272 271 268 266 267 271 269 268 266 268 271 272 273 279 285 293 300 306 310 310 309 307 308 310 309 308 309 311 315 319 321 323 321 320 320 319 319 320 320 319 318 316 314 313 313 313 313 309 302 297 295 293 291 289 285 283 285 284 284 287 290 279 267 264 262 261 279 278 272 272 264 279
263 269 272 274 274 280 279 284 285 288 283 272 267 268 268 262 262 265 264 263 262 263 265 269 271 277 283 290 298 303 304 303 303 306 308 308 309 308 307 306 310 315 319 323 324 324 325 324 326 326 325 325 323 321 317 314 314 313 312 310 308 309 302 295 292 291 290 288 284 283 282 283 283 288 286 269 262 262 260 257 268 272 nan nan 273
264 269 272 272 276 280 280 281 284 286 280 271 263 265 265 263 263 261 262 259 260 265 267 267 272 279 287 294 297 300 299 300 303 307 310 309 309 307 305 305 310 316 321 324 325 323 325 327 330 329 328 327 326 323 320 317 316 315 312 309 308 306 305 299 293 290 289 290 286 281 282 285 290 293 289 272 261 262 256 256 257 264 268 nan nan
263 269 271 273 274 280 283 284 283 284 277 268 259 260 263 260 256 256 255 262 264 267 269 275 282 286 288 293 294 298 300 302 304 306 306 306 307 305 304 308 311 316 320 323 324 326 327 328 329 327 327 329 326 323 323 319 317 312 308 308 305 304 302 300 296 289 288 287 284 281 278 281 286 285 282 276 268 263 258 255 256 260 268 nan nan
260 266 267 270 273 278 282 280 279 276 268 261 252 254 258 256 258 261 261 264 268 272 275 279 280 285 290 294 299 302 302 302 301 301 302 302 303 304 306 309 310 317 323 327 331 332 333 332 330 329 327 326 323 321 320 317 315 313 305 300 300 299 298 296 296 290 284 280 282 286 282 279 280 279 274 272 268 262 261 259 257 259 264 269 nan
256 256 256 262 268 271 274 279 277 267 253 248 247 250 251 247 249 256 260 268 268 270 273 277 283 289 293 298 301 299 298 297 295 295 298 299 301 304 306 308 312 319 326 329 329 331 332 335 335 331 330 328 330 328 326 324 320 313 310 303 298 288 291 294 291 290 283 280 282 287 282 276 275 276 276 274 275 269 262 262 261 260 262 266 nan
240 244 250 261 262 267 276 281 273 254 242 242 244 246 251 253 250 256 262 263 272 274 279 280 287 293 295 297 297 295 294 293 291 292 296 298 301 304 305 308 312 318 321 325 328 332 332 332 333 334 333 334 332 331 330 327 324 319 311 309 299 292 280 281 282 284 286 284 283 282 280 276 271 272 274 281 283 277 265 257 nan 262 263 260 nan
233 239 244 249 250 267 275 277 258 235 233 243 248 250 252 255 255 260 270 275 276 278 285 286 289 295 298 296 294 292 291 290 290 290 293 294 297 301 303 306 310 314 319 322 324 326 329 332 334 334 336 334 334 333 332 328 327 323 320 308 305 299 291 272 268 273 281 279 281 281 279 277 272 269 274 279 281 279 274 268 263 259 257 254 nan
228 228 239 242 251 257 260 255 237 228 236 244 248 251 250 253 262 271 280 283 285 285 285 289 294 296 297 298 294 290 288 287 287 287 nan nan nan nan nan 299 302 307 313 317 321 325 330 333 334 335 336 335 335 332 333 327 327 325 325 319 306 297 284 276 267 262 272 274 272 275 277 279 274 271 271 276 284 282 278 272 266 263 262 259 256
223 228 238 244 249 250 255 253 237 234 240 246 250 253 258 260 265 269 270 278 283 285 288 293 298 300 299 296 295 291 nan nan nan nan nan nan nan nan nan nan nan nan nan 315 319 324 328 330 331 335 337 335 335 337 337 331 322 323 322 316 316 311 299 285 273 261 252 266 274 271 272 276 276 272 269 274 281 277 276 272 267 262 255 252 253
229 232 237 240 244 249 254 252 241 232 232 242 246 250 265 267 268 268 274 278 280 287 292 295 298 299 298 297 297 nan nan nan nan nan nan nan nan nan nan nan nan nan nan nan nan nan 323 325 328 334 338 336 336 336 336 330 323 317 313 309 304 301 300 291 283 266 249 244 256 268 271 270 275 275 271 270 277 274 nan nan 269 259 251 251 247
234 236 238 241 243 252 255 256 248 236 236 242 249 253 259 262 264 273 279 281 284 286 291 292 294 297 297 298 nan nan nan nan nan nan nan nan nan nan nan nan nan nan nan nan 314 317 318 322 327 332 337 336 336 338 339 333 325 323 317 312 306 304 303 298 283 269 256 247 245 256 265 272 274 277 272 268 268 274 284 285 nan 261 253 nan 245
235 243 245 244 244 244 248 251 249 245 244 246 250 256 260 261 267 275 280 282 284 287 287 288 294 298 296 292 nan nan nan nan nan nan nan nan nan nan nan nan nan 300 303 304 307 309 312 318 326 333 336 336 336 339 337 331 327 326 324 314 306 299 293 287 277 268 259 255 240 242 255 268 275 277 275 270 270 276 287 294 287 nan nan 248 245
235 243 247 244 242 243 250 252 251 250 247 247 252 257 259 263 270 273 276 279 280 282 287 290 294 295 292 nan nan nan nan nan nan nan nan nan nan nan 287 nan nan 294 295 297 300 305 311 316 323 330 334 336 337 340 341 337 329 325 328 321 316 309 297 285 275 264 257 249 248 250 255 263 269 269 278 275 268 279 288 297 298 nan nan 248 246